Time,TemperatureF,DewpointF,PressureIn,WindDirection,WindDirectionDegrees,WindSpeedMPH,WindSpeedGustMPH,Humidity,HourlyPrecipIn,Conditions,Clouds,dailyrainin,SoftwareType,DateUTC
2013-04-06 00:04:00,29.4,19.8,29.36,NE,40,6.0,6.0,67,0.00,,,0.00,Wunderground v.1.15,2013-04-06 04:04:00,
2013-04-06 00:09:00,29.5,19.9,29.36,NE,40,6.0,6.0,67,0.00,,,0.00,Wunderground v.1.15,2013-04-06 04:09:00,
2013-04-06 00:14:00,29.6,19.6,29.37,NE,42,7.0,8.0,66,0.00,,,0.00,Wunderground v.1.15,2013-04-06 04:14:00,
2013-04-06 00:19:00,29.6,19.6,29.37,NE,47,6.0,6.0,66,0.00,,,0.00,Wunderground v.1.15,2013-04-06 04:19:00,
2013-04-06 00:24:00,29.6,20.0,29.37,NE,34,5.0,7.0,67,0.00,,,0.00,Wunderground v.1.15,2013-04-06 04:24:00,
2013-04-06 00:29:00,29.5,19.9,29.37,NE,44,5.0,5.0,67,0.00,,,0.00,Wunderground v.1.15,2013-04-06 04:29:00,
2013-04-06 00:34:00,29.4,19.8,29.38,NE,38,5.0,5.0,67,0.00,,,0.00,Wunderground v.1.15,2013-04-06 04:34:00,
2013-04-06 00:39:00,29.4,19.8,29.38,NE,36,5.0,6.0,67,0.00,,,0.00,Wunderground v.1.15,2013-04-06 04:39:00,
2013-04-06 00:44:00,29.4,19.8,29.38,NE,51,5.0,6.0,67,0.00,,,0.00,Wunderground v.1.15,2013-04-06 04:44:00,
2013-04-06 00:54:00,29.2,19.6,29.38,NE,42,4.0,6.0,67,0.00,,,0.00,Wunderground v.1.15,2013-04-06 04:54:00,
2013-04-06 00:59:00,29.2,19.6,29.38,NNE,32,5.0,5.0,67,0.00,,,0.00,Wunderground v.1.15,2013-04-06 04:59:00,
2013-04-06 01:04:00,29.3,19.7,29.39,NNE,27,5.0,11.0,67,0.00,,,0.00,Wunderground v.1.15,2013-04-06 05:04:00,
2013-04-06 01:09:00,29.1,19.5,29.39,NNE,32,5.0,11.0,67,0.00,,,0.00,Wunderground v.1.15,2013-04-06 05:09:00,
2013-04-06 01:14:00,29.1,19.5,29.39,NE,39,4.0,11.0,67,0.00,,,0.00,Wunderground v.1.15,2013-04-06 05:14:00,
2013-04-06 01:19:00,28.9,19.7,29.39,NE,39,4.0,4.0,68,0.00,,,0.00,Wunderground v.1.15,2013-04-06 05:19:00,
2013-04-06 01:29:00,28.9,19.7,29.39,NNE,32,3.0,3.0,68,0.00,,,0.00,Wunderground v.1.15,2013-04-06 05:29:00,
2013-04-06 01:34:00,28.7,19.8,29.40,NNE,32,3.0,11.0,69,0.00,,,0.00,Wunderground v.1.15,2013-04-06 05:34:00,
2013-04-06 01:39:00,28.7,19.8,29.40,NNE,32,2.0,11.0,69,0.00,,,0.00,Wunderground v.1.15,2013-04-06 05:39:00,
2013-04-06 01:44:00,28.6,19.7,29.40,NNE,32,3.0,11.0,69,0.00,,,0.00,Wunderground v.1.15,2013-04-06 05:44:00,
2013-04-06 01:49:00,28.5,20.0,29.40,NNE,32,3.0,3.0,70,0.00,,,0.00,Wunderground v.1.15,2013-04-06 05:49:00,
2013-04-06 01:59:00,28.5,20.0,29.41,NE,34,4.0,11.0,70,0.00,,,0.00,Wunderground v.1.15,2013-04-06 05:59:00,
2013-04-06 02:04:00,28.6,20.1,29.41,NE,34,4.0,11.0,70,0.00,,,0.00,Wunderground v.1.15,2013-04-06 06:04:00,
2013-04-06 02:09:00,28.6,20.1,29.41,NE,35,4.0,11.0,70,0.00,,,0.00,Wunderground v.1.15,2013-04-06 06:09:00,
2013-04-06 02:14:00,28.6,20.1,29.41,NE,35,4.0,11.0,70,0.00,,,0.00,Wunderground v.1.15,2013-04-06 06:14:00,
2013-04-06 02:19:00,28.5,20.0,29.41,NE,35,3.0,3.0,70,0.00,,,0.00,Wunderground v.1.15,2013-04-06 06:19:00,
2013-04-06 02:29:00,28.4,20.2,29.41,NE,35,2.0,2.0,71,0.00,,,0.00,Wunderground v.1.15,2013-04-06 06:29:00,
2013-04-06 02:34:00,28.5,20.3,29.41,NE,35,2.0,11.0,71,0.00,,,0.00,Wunderground v.1.15,2013-04-06 06:34:00,
2013-04-06 02:39:00,28.5,20.3,29.41,NE,35,2.0,11.0,71,0.00,,,0.00,Wunderground v.1.15,2013-04-06 06:39:00,
2013-04-06 02:44:00,28.5,20.3,29.42,NE,35,2.0,11.0,71,0.00,,,0.00,Wunderground v.1.15,2013-04-06 06:44:00,
2013-04-06 02:49:00,28.5,20.3,29.42,NE,35,2.0,2.0,71,0.00,,,0.00,Wunderground v.1.15,2013-04-06 06:49:00,
2013-04-06 02:54:00,28.4,20.5,29.42,NE,35,2.0,11.0,72,0.00,,,0.00,Wunderground v.1.15,2013-04-06 06:54:00,
2013-04-06 02:59:00,28.4,20.5,29.42,NE,35,2.0,2.0,72,0.00,,,0.00,Wunderground v.1.15,2013-04-06 06:59:00,
2013-04-06 03:05:00,28.4,20.8,29.42,NE,35,2.0,11.0,73,0.00,,,0.00,Wunderground v.1.15,2013-04-06 07:05:00,
2013-04-06 03:14:00,28.3,21.1,29.42,NE,35,0.0,11.0,74,0.00,,,0.00,Wunderground v.1.15,2013-04-06 07:14:00,
2013-04-06 03:19:00,28.2,21.0,29.42,NE,35,0.0,11.0,74,0.00,,,0.00,Wunderground v.1.15,2013-04-06 07:19:00,
2013-04-06 03:24:00,28.2,20.7,29.42,NE,35,0.0,11.0,73,0.00,,,0.00,Wunderground v.1.15,2013-04-06 07:24:00,
2013-04-06 03:29:00,28.1,21.2,29.42,NE,35,0.0,11.0,75,0.00,,,0.00,Wunderground v.1.15,2013-04-06 07:29:00,
2013-04-06 03:39:00,28.0,20.5,29.42,NE,35,0.0,11.0,73,0.00,,,0.00,Wunderground v.1.15,2013-04-06 07:39:00,
2013-04-06 03:49:00,27.9,20.7,29.43,NE,35,0.0,11.0,74,0.00,,,0.00,Wunderground v.1.15,2013-04-06 07:49:00,
2013-04-06 03:54:00,28.0,21.1,29.43,NE,35,0.0,11.0,75,0.00,,,0.00,Wunderground v.1.15,2013-04-06 07:54:00,
2013-04-06 03:59:00,27.9,21.3,29.43,NE,35,0.0,11.0,76,0.00,,,0.00,Wunderground v.1.15,2013-04-06 07:59:00,
2013-04-06 04:04:00,27.9,21.3,29.43,NE,35,0.0,11.0,76,0.00,,,0.00,Wunderground v.1.15,2013-04-06 08:04:00,
2013-04-06 04:09:00,27.9,21.3,29.43,NE,35,0.0,11.0,76,0.00,,,0.00,Wunderground v.1.15,2013-04-06 08:09:00,
2013-04-06 04:19:00,27.9,21.6,29.44,NE,35,0.0,11.0,77,0.00,,,0.00,Wunderground v.1.15,2013-04-06 08:19:00,
2013-04-06 04:24:00,27.8,21.5,29.44,NE,35,0.0,11.0,77,0.00,,,0.00,Wunderground v.1.15,2013-04-06 08:24:00,
2013-04-06 04:29:00,27.7,21.4,29.44,NE,35,0.0,11.0,77,0.00,,,0.00,Wunderground v.1.15,2013-04-06 08:29:00,
2013-04-06 04:34:00,27.6,21.3,29.44,NE,35,0.0,11.0,77,0.00,,,0.00,Wunderground v.1.15,2013-04-06 08:34:00,
2013-04-06 04:39:00,27.5,20.9,29.44,NE,35,0.0,11.0,76,0.00,,,0.00,Wunderground v.1.15,2013-04-06 08:39:00,
2013-04-06 04:44:00,27.4,20.8,29.44,NE,35,0.0,11.0,76,0.00,,,0.00,Wunderground v.1.15,2013-04-06 08:44:00,
2013-04-06 04:54:00,27.2,21.2,29.44,NE,35,0.0,11.0,78,0.00,,,0.00,Wunderground v.1.15,2013-04-06 08:54:00,
2013-04-06 04:59:00,27.2,21.5,29.44,NE,35,0.0,11.0,79,0.00,,,0.00,Wunderground v.1.15,2013-04-06 08:59:00,
2013-04-06 05:04:00,27.3,21.6,29.44,NE,35,0.0,11.0,79,0.00,,,0.00,Wunderground v.1.15,2013-04-06 09:04:00,
2013-04-06 05:14:00,27.5,22.4,29.44,NNE,16,0.0,11.0,81,0.00,,,0.00,Wunderground v.1.15,2013-04-06 09:14:00,
2013-04-06 05:19:00,27.3,22.2,29.44,North,5,0.0,11.0,81,0.00,,,0.00,Wunderground v.1.15,2013-04-06 09:19:00,
2013-04-06 05:29:00,27.1,22.0,29.45,North,355,0.0,11.0,81,0.00,,,0.00,Wunderground v.1.15,2013-04-06 09:29:00,
2013-04-06 05:34:00,27.0,21.9,29.45,NNW,337,0.0,11.0,81,0.00,,,0.00,Wunderground v.1.15,2013-04-06 09:34:00,
2013-04-06 05:39:00,26.8,21.8,29.45,NNW,336,0.0,11.0,81,0.00,,,0.00,Wunderground v.1.15,2013-04-06 09:39:00,
2013-04-06 05:44:00,26.6,21.6,29.45,NNW,333,0.0,11.0,81,0.00,,,0.00,Wunderground v.1.15,2013-04-06 09:44:00,
2013-04-06 05:49:00,26.3,21.3,29.45,NW,309,0.0,11.0,81,0.00,,,0.00,Wunderground v.1.15,2013-04-06 09:49:00,
2013-04-06 05:59:00,26.3,21.3,29.46,NW,306,0.0,11.0,81,0.00,,,0.00,Wunderground v.1.15,2013-04-06 09:59:00,
2013-04-06 06:04:00,26.2,21.2,29.46,NW,305,1.0,11.0,81,0.00,,,0.00,Wunderground v.1.15,2013-04-06 10:04:00,
2013-04-06 06:09:00,26.0,21.0,29.46,WNW,302,1.0,1.0,81,0.00,,,0.00,Wunderground v.1.15,2013-04-06 10:09:00,
2013-04-06 06:14:00,25.8,20.8,29.46,WNW,294,2.0,3.0,81,0.00,,,0.00,Wunderground v.1.15,2013-04-06 10:14:00,
2013-04-06 06:19:00,25.6,20.6,29.47,WNW,293,3.0,11.0,81,0.00,,,0.00,Wunderground v.1.15,2013-04-06 10:19:00,
2013-04-06 06:24:00,25.6,20.9,29.47,WNW,293,4.0,11.0,82,0.00,,,0.00,Wunderground v.1.15,2013-04-06 10:24:00,
2013-04-06 06:29:00,25.6,20.9,29.47,WNW,286,4.0,11.0,82,0.00,,,0.00,Wunderground v.1.15,2013-04-06 10:29:00,
2013-04-06 06:34:00,25.7,21.0,29.47,WNW,284,4.0,11.0,82,0.00,,,0.00,Wunderground v.1.15,2013-04-06 10:34:00,
2013-04-06 06:39:00,25.7,21.0,29.47,West,279,4.0,4.0,82,0.00,,,0.00,Wunderground v.1.15,2013-04-06 10:39:00,
2013-04-06 06:44:00,25.7,21.0,29.47,West,279,3.0,11.0,82,0.00,,,0.00,Wunderground v.1.15,2013-04-06 10:44:00,
2013-04-06 06:49:00,25.7,21.0,29.47,West,280,3.0,3.0,82,0.00,,,0.00,Wunderground v.1.15,2013-04-06 10:49:00,
2013-04-06 06:54:00,25.6,21.2,29.47,West,275,3.0,4.0,83,0.00,,,0.00,Wunderground v.1.15,2013-04-06 10:54:00,
2013-04-06 06:59:00,25.6,21.2,29.47,West,275,3.0,11.0,83,0.00,,,0.00,Wunderground v.1.15,2013-04-06 10:59:00,
2013-04-06 07:04:00,26.0,21.5,29.48,West,277,4.0,11.0,83,0.00,,,0.00,Wunderground v.1.15,2013-04-06 11:04:00,
2013-04-06 07:09:00,26.3,21.8,29.48,West,277,4.0,4.0,83,0.00,,,0.00,Wunderground v.1.15,2013-04-06 11:09:00,
2013-04-06 07:14:00,26.6,22.1,29.48,West,275,3.0,11.0,83,0.00,,,0.00,Wunderground v.1.15,2013-04-06 11:14:00,
2013-04-06 07:19:00,27.0,22.5,29.49,West,275,2.0,11.0,83,0.00,,,0.00,Wunderground v.1.15,2013-04-06 11:19:00,
2013-04-06 07:24:00,27.9,23.4,29.49,WNW,298,2.0,11.0,83,0.00,,,0.00,Wunderground v.1.15,2013-04-06 11:24:00,
2013-04-06 07:29:00,28.7,23.9,29.49,WNW,298,2.0,11.0,82,0.00,,,0.00,Wunderground v.1.15,2013-04-06 11:29:00,
2013-04-06 07:34:00,29.4,24.0,29.49,WNW,299,2.0,11.0,80,0.00,,,0.00,Wunderground v.1.15,2013-04-06 11:34:00,
2013-04-06 07:39:00,30.2,24.8,29.50,WNW,302,2.0,11.0,80,0.00,,,0.00,Wunderground v.1.15,2013-04-06 11:39:00,
2013-04-06 07:44:00,31.1,25.3,29.50,NW,309,1.0,11.0,79,0.00,,,0.00,Wunderground v.1.15,2013-04-06 11:44:00,
2013-04-06 07:49:00,31.9,25.5,29.50,NW,309,1.0,1.0,77,0.00,,,0.00,Wunderground v.1.15,2013-04-06 11:49:00,
2013-04-06 07:54:00,32.7,26.0,29.50,NW,309,0.0,11.0,76,0.00,,,0.00,Wunderground v.1.15,2013-04-06 11:54:00,
2013-04-06 08:04:00,33.4,26.0,29.51,NW,304,1.0,11.0,74,0.00,,,0.00,Wunderground v.1.15,2013-04-06 12:04:00,
2013-04-06 08:09:00,33.5,25.8,29.51,WNW,302,1.0,1.0,73,0.00,,,0.00,Wunderground v.1.15,2013-04-06 12:09:00,
2013-04-06 08:14:00,33.7,26.0,29.51,WNW,301,1.0,11.0,73,0.00,,,0.00,Wunderground v.1.15,2013-04-06 12:14:00,
2013-04-06 08:20:00,34.2,26.4,29.51,WNW,301,1.0,1.0,73,0.00,,,0.00,Wunderground v.1.15,2013-04-06 12:20:00,
2013-04-06 08:29:00,35.1,26.6,29.51,WNW,301,0.0,11.0,71,0.00,,,0.00,Wunderground v.1.15,2013-04-06 12:29:00,
2013-04-06 08:34:00,35.4,26.2,29.51,WNW,301,0.0,11.0,69,0.00,,,0.00,Wunderground v.1.15,2013-04-06 12:34:00,
2013-04-06 08:39:00,35.0,25.9,29.51,WNW,301,0.0,11.0,69,0.00,,,0.00,Wunderground v.1.15,2013-04-06 12:39:00,
2013-04-06 08:49:00,35.7,26.2,29.51,WNW,301,0.0,11.0,68,0.00,,,0.00,Wunderground v.1.15,2013-04-06 12:49:00,
2013-04-06 08:54:00,35.5,26.0,29.51,WNW,300,0.0,11.0,68,0.00,,,0.00,Wunderground v.1.15,2013-04-06 12:54:00,
2013-04-06 08:59:00,35.5,26.0,29.51,WNW,290,1.0,1.0,68,0.00,,,0.00,Wunderground v.1.15,2013-04-06 12:59:00,
2013-04-06 09:09:00,35.1,25.6,29.51,WSW,251,1.0,1.0,68,0.00,,,0.00,Wunderground v.1.15,2013-04-06 13:09:00,
2013-04-06 09:14:00,34.7,24.9,29.51,SSW,201,1.0,11.0,67,0.00,,,0.00,Wunderground v.1.15,2013-04-06 13:14:00,
2013-04-06 09:24:00,35.4,25.5,29.50,SSW,208,1.0,11.0,67,0.00,,,0.00,Wunderground v.1.15,2013-04-06 13:24:00,
2013-04-06 09:29:00,34.7,24.9,29.51,South,184,1.0,1.0,67,0.00,,,0.00,Wunderground v.1.15,2013-04-06 13:29:00,
2013-04-06 09:34:00,34.6,25.1,29.50,South,171,2.0,2.0,68,0.00,,,0.00,Wunderground v.1.15,2013-04-06 13:34:00,
2013-04-06 09:39:00,34.3,24.8,29.50,SSE,162,1.0,11.0,68,0.00,,,0.00,Wunderground v.1.15,2013-04-06 13:39:00,
2013-04-06 09:44:00,34.4,25.3,29.50,SSE,166,2.0,11.0,69,0.00,,,0.00,Wunderground v.1.15,2013-04-06 13:44:00,
2013-04-06 09:49:00,34.4,25.3,29.50,SSE,164,1.0,11.0,69,0.00,,,0.00,Wunderground v.1.15,2013-04-06 13:49:00,
2013-04-06 09:54:00,34.5,25.0,29.50,South,177,2.0,11.0,68,0.00,,,0.00,Wunderground v.1.15,2013-04-06 13:54:00,
2013-04-06 09:59:00,34.2,24.4,29.51,South,171,2.0,2.0,67,0.00,,,0.00,Wunderground v.1.15,2013-04-06 13:59:00,
2013-04-06 10:04:00,35.4,24.8,29.51,SSW,192,2.0,11.0,65,0.00,,,0.00,Wunderground v.1.15,2013-04-06 14:04:00,
2013-04-06 10:09:00,37.2,25.8,29.51,SSW,194,1.0,11.0,63,0.00,,,0.00,Wunderground v.1.15,2013-04-06 14:09:00,
2013-04-06 10:14:00,37.3,25.1,29.51,WSW,250,2.0,11.0,61,0.00,,,0.00,Wunderground v.1.15,2013-04-06 14:14:00,
2013-04-06 10:19:00,37.3,25.1,29.51,SW,229,4.0,11.0,61,0.00,,,0.00,Wunderground v.1.15,2013-04-06 14:19:00,
2013-04-06 10:29:00,35.8,24.4,29.51,SSW,212,4.0,11.0,63,0.00,,,0.00,Wunderground v.1.15,2013-04-06 14:29:00,
2013-04-06 10:34:00,35.8,24.4,29.51,SW,228,4.0,11.0,63,0.00,,,0.00,Wunderground v.1.15,2013-04-06 14:34:00,
2013-04-06 10:39:00,37.1,26.0,29.50,SSW,196,2.0,11.0,64,0.00,,,0.00,Wunderground v.1.15,2013-04-06 14:39:00,
2013-04-06 10:44:00,36.3,22.9,29.51,South,178,2.0,11.0,58,0.00,,,0.00,Wunderground v.1.15,2013-04-06 14:44:00,
2013-04-06 10:49:00,36.2,24.0,29.50,WSW,240,3.0,11.0,61,0.00,,,0.00,Wunderground v.1.15,2013-04-06 14:49:00,
2013-04-06 10:54:00,36.7,24.5,29.50,West,267,4.0,11.0,61,0.00,,,0.00,Wunderground v.1.15,2013-04-06 14:54:00,
2013-04-06 11:04:00,40.0,27.6,29.50,West,261,2.0,11.0,61,0.00,,,0.00,Wunderground v.1.15,2013-04-06 15:04:00,
2013-04-06 11:09:00,38.6,24.2,29.51,SSE,152,3.0,11.0,56,0.00,,,0.00,Wunderground v.1.15,2013-04-06 15:09:00,
2013-04-06 11:14:00,37.1,23.7,29.51,SSE,165,3.0,11.0,58,0.00,,,0.00,Wunderground v.1.15,2013-04-06 15:14:00,
2013-04-06 11:19:00,38.3,24.4,29.50,SSW,207,1.0,11.0,57,0.00,,,0.00,Wunderground v.1.15,2013-04-06 15:19:00,
2013-04-06 11:29:00,38.0,22.8,29.50,SSW,192,3.0,3.0,54,0.00,,,0.00,Wunderground v.1.15,2013-04-06 15:29:00,
2013-04-06 11:34:00,37.8,23.1,29.50,SSE,165,3.0,11.0,55,0.00,,,0.00,Wunderground v.1.15,2013-04-06 15:34:00,
2013-04-06 11:44:00,38.5,24.1,29.50,West,271,3.0,11.0,56,0.00,,,0.00,Wunderground v.1.15,2013-04-06 15:44:00,
2013-04-06 11:49:00,39.5,23.8,29.50,SW,223,4.0,11.0,53,0.00,,,0.00,Wunderground v.1.15,2013-04-06 15:49:00,
2013-04-06 11:54:00,38.4,23.6,29.49,SSW,196,4.0,11.0,55,0.00,,,0.00,Wunderground v.1.15,2013-04-06 15:54:00,
2013-04-06 11:59:00,39.0,24.6,29.49,SW,229,4.0,11.0,56,0.00,,,0.00,Wunderground v.1.15,2013-04-06 15:59:00,
2013-04-06 12:09:00,38.4,23.6,29.49,WNW,286,7.0,7.0,55,0.00,,,0.00,Wunderground v.1.15,2013-04-06 16:09:00,
2013-04-06 12:14:00,39.6,23.9,29.49,SW,227,5.0,11.0,53,0.00,,,0.00,Wunderground v.1.15,2013-04-06 16:14:00,
2013-04-06 12:19:00,39.7,24.8,29.49,WNW,286,3.0,3.0,55,0.00,,,0.00,Wunderground v.1.15,2013-04-06 16:19:00,
2013-04-06 12:24:00,39.3,23.6,29.48,SE,144,4.0,5.0,53,0.00,,,0.00,Wunderground v.1.15,2013-04-06 16:24:00,
2013-04-06 12:29:00,38.4,22.7,29.48,SW,221,7.0,11.0,53,0.00,,,0.00,Wunderground v.1.15,2013-04-06 16:29:00,
2013-04-06 12:34:00,39.3,23.1,29.48,SSW,209,7.0,11.0,52,0.00,,,0.00,Wunderground v.1.15,2013-04-06 16:34:00,
2013-04-06 12:39:00,39.7,24.0,29.48,WSW,239,5.0,5.0,53,0.00,,,0.00,Wunderground v.1.15,2013-04-06 16:39:00,
2013-04-06 12:44:00,39.9,24.1,29.48,SSE,159,3.0,11.0,53,0.00,,,0.00,Wunderground v.1.15,2013-04-06 16:44:00,
2013-04-06 12:54:00,41.9,26.0,29.48,WNW,302,3.0,11.0,53,0.00,,,0.00,Wunderground v.1.15,2013-04-06 16:54:00,
2013-04-06 12:59:00,43.1,26.7,29.47,SSW,203,2.0,11.0,52,0.00,,,0.00,Wunderground v.1.15,2013-04-06 16:59:00,
2013-04-06 13:04:00,41.3,24.0,29.47,SW,226,4.0,11.0,50,0.00,,,0.00,Wunderground v.1.15,2013-04-06 17:04:00,
2013-04-06 13:09:00,41.7,23.9,29.47,SSW,203,4.0,11.0,49,0.00,,,0.00,Wunderground v.1.15,2013-04-06 17:09:00,
2013-04-06 13:14:00,41.1,23.4,29.47,West,274,6.0,11.0,49,0.00,,,0.00,Wunderground v.1.15,2013-04-06 17:14:00,
2013-04-06 13:24:00,40.7,23.5,29.47,SSW,200,4.0,11.0,50,0.00,,,0.00,Wunderground v.1.15,2013-04-06 17:24:00,
2013-04-06 13:29:00,40.9,22.7,29.47,SW,236,6.0,11.0,48,0.00,,,0.00,Wunderground v.1.15,2013-04-06 17:29:00,
2013-04-06 13:39:00,41.1,23.4,29.47,SSW,196,6.0,11.0,49,0.00,,,0.00,Wunderground v.1.15,2013-04-06 17:39:00,
2013-04-06 13:44:00,41.7,22.9,29.46,WSW,249,5.0,11.0,47,0.00,,,0.00,Wunderground v.1.15,2013-04-06 17:44:00,
2013-04-06 13:49:00,41.4,22.1,29.46,South,181,8.0,8.0,46,0.00,,,0.00,Wunderground v.1.15,2013-04-06 17:49:00,
2013-04-06 13:59:00,42.3,24.0,29.46,WSW,252,5.0,5.0,48,0.00,,,0.00,Wunderground v.1.15,2013-04-06 17:59:00,
2013-04-06 14:04:00,42.7,25.3,29.45,West,272,5.0,8.0,50,0.00,,,0.00,Wunderground v.1.15,2013-04-06 18:04:00,
2013-04-06 14:09:00,43.3,26.4,29.45,WNW,296,6.0,6.0,51,0.00,,,0.00,Wunderground v.1.15,2013-04-06 18:09:00,
2013-04-06 14:19:00,43.5,25.6,29.45,SW,234,4.0,4.0,49,0.00,,,0.00,Wunderground v.1.15,2013-04-06 18:19:00,
2013-04-06 14:24:00,44.2,26.2,29.45,NW,305,4.0,11.0,49,0.00,,,0.00,Wunderground v.1.15,2013-04-06 18:24:00,
2013-04-06 14:29:00,44.2,25.2,29.44,SW,220,4.0,11.0,47,0.00,,,0.00,Wunderground v.1.15,2013-04-06 18:29:00,
2013-04-06 14:34:00,43.5,23.5,29.44,SW,219,7.0,11.0,45,0.00,,,0.00,Wunderground v.1.15,2013-04-06 18:34:00,
2013-04-06 14:39:00,42.7,23.3,29.43,South,186,7.0,11.0,46,0.00,,,0.00,Wunderground v.1.15,2013-04-06 18:39:00,
2013-04-06 14:44:00,43.1,24.2,29.43,South,169,8.0,11.0,47,0.00,,,0.00,Wunderground v.1.15,2013-04-06 18:44:00,
2013-04-06 14:49:00,42.9,24.0,29.43,West,260,8.0,11.0,47,0.00,,,0.00,Wunderground v.1.15,2013-04-06 18:49:00,
2013-04-06 14:54:00,43.0,23.1,29.42,SSW,202,7.0,11.0,45,0.00,,,0.00,Wunderground v.1.15,2013-04-06 18:54:00,
2013-04-06 14:59:00,42.9,23.0,29.42,WSW,243,7.0,11.0,45,0.00,,,0.00,Wunderground v.1.15,2013-04-06 18:59:00,
2013-04-06 15:04:00,43.5,24.1,29.42,SW,215,8.0,16.0,46,0.00,,,0.00,Wunderground v.1.15,2013-04-06 19:04:00,
2013-04-06 15:14:00,43.8,23.8,29.42,SW,215,9.0,12.0,45,0.00,,,0.00,Wunderground v.1.15,2013-04-06 19:14:00,
2013-04-06 15:19:00,44.3,24.3,29.41,SSW,213,8.0,12.0,45,0.00,,,0.00,Wunderground v.1.15,2013-04-06 19:19:00,
2013-04-06 15:29:00,44.6,25.1,29.41,SSW,203,9.0,11.0,46,0.00,,,0.00,Wunderground v.1.15,2013-04-06 19:29:00,
2013-04-06 15:34:00,44.6,24.0,29.40,WSW,240,8.0,11.0,44,0.00,,,0.00,Wunderground v.1.15,2013-04-06 19:34:00,
2013-04-06 15:39:00,44.4,22.7,29.40,SW,232,9.0,16.0,42,0.00,,,0.00,Wunderground v.1.15,2013-04-06 19:39:00,
2013-04-06 15:44:00,44.2,23.1,29.40,West,266,11.0,16.0,43,0.00,,,0.00,Wunderground v.1.15,2013-04-06 19:44:00,
2013-04-06 15:54:00,44.9,24.3,29.39,WSW,245,8.0,11.0,44,0.00,,,0.00,Wunderground v.1.15,2013-04-06 19:54:00,
2013-04-06 16:04:00,45.3,24.1,29.39,WSW,254,7.0,11.0,43,0.00,,,0.00,Wunderground v.1.15,2013-04-06 20:04:00,
2013-04-06 16:09:00,45.2,23.4,29.38,SW,228,7.0,11.0,42,0.00,,,0.00,Wunderground v.1.15,2013-04-06 20:09:00,
2013-04-06 16:14:00,45.2,23.4,29.38,SW,229,7.0,11.0,42,0.00,,,0.00,Wunderground v.1.15,2013-04-06 20:14:00,
2013-04-06 16:19:00,45.5,23.7,29.38,SW,227,7.0,13.0,42,0.00,,,0.00,Wunderground v.1.15,2013-04-06 20:19:00,
2013-04-06 16:24:00,45.4,23.0,29.37,South,176,9.0,13.0,41,0.00,,,0.00,Wunderground v.1.15,2013-04-06 20:24:00,
2013-04-06 16:34:00,45.2,22.9,29.37,West,275,9.0,11.0,41,0.00,,,0.00,Wunderground v.1.15,2013-04-06 20:34:00,
2013-04-06 16:39:00,45.3,23.0,29.36,SSW,203,10.0,11.0,41,0.00,,,0.00,Wunderground v.1.15,2013-04-06 20:39:00,
2013-04-06 16:49:00,45.6,23.8,29.36,SW,225,6.0,11.0,42,0.00,,,0.00,Wunderground v.1.15,2013-04-06 20:49:00,
2013-04-06 16:54:00,45.8,22.2,29.35,SW,229,8.0,11.0,39,0.00,,,0.00,Wunderground v.1.15,2013-04-06 20:54:00,
2013-04-06 16:59:00,45.8,21.6,29.35,SW,229,10.0,10.0,38,0.00,,,0.00,Wunderground v.1.15,2013-04-06 20:59:00,
2013-04-06 17:04:00,45.7,21.5,29.35,WSW,238,11.0,12.0,38,0.00,,,0.00,Wunderground v.1.15,2013-04-06 21:04:00,
2013-04-06 17:09:00,45.8,22.2,29.35,SW,225,10.0,10.0,39,0.00,,,0.00,Wunderground v.1.15,2013-04-06 21:09:00,
2013-04-06 17:14:00,45.9,22.9,29.35,SW,230,10.0,11.0,40,0.00,,,0.00,Wunderground v.1.15,2013-04-06 21:14:00,
2013-04-06 17:19:00,46.1,22.5,29.35,SSE,163,9.0,11.0,39,0.00,,,0.00,Wunderground v.1.15,2013-04-06 21:19:00,
2013-04-06 17:29:00,46.0,21.8,29.34,SW,220,9.0,11.0,38,0.00,,,0.00,Wunderground v.1.15,2013-04-06 21:29:00,
2013-04-06 17:34:00,46.3,22.7,29.34,WSW,240,8.0,11.0,39,0.00,,,0.00,Wunderground v.1.15,2013-04-06 21:34:00,
2013-04-06 17:44:00,43.5,26.1,29.34,SSE,157,7.0,14.0,50,0.00,,,0.00,Wunderground v.1.15,2013-04-06 21:44:00,
2013-04-06 17:49:00,42.8,26.8,29.34,SSE,150,8.0,11.0,53,0.00,,,0.00,Wunderground v.1.15,2013-04-06 21:49:00,
2013-04-06 17:54:00,42.4,26.9,29.34,SSE,155,8.0,11.0,54,0.00,,,0.00,Wunderground v.1.15,2013-04-06 21:54:00,
2013-04-06 17:59:00,42.2,26.7,29.34,SSE,152,7.0,7.0,54,0.00,,,0.00,Wunderground v.1.15,2013-04-06 21:59:00,
2013-04-06 18:04:00,41.8,26.8,29.34,South,177,7.0,11.0,55,0.00,,,0.00,Wunderground v.1.15,2013-04-06 22:04:00,
2013-04-06 18:14:00,41.1,25.7,29.34,SSE,148,8.0,13.0,54,0.00,,,0.00,Wunderground v.1.15,2013-04-06 22:14:00,
2013-04-06 18:19:00,40.9,25.5,29.34,SSE,155,8.0,11.0,54,0.00,,,0.00,Wunderground v.1.15,2013-04-06 22:19:00,
2013-04-06 18:24:00,40.5,24.7,29.33,SSE,153,8.0,11.0,53,0.00,,,0.00,Wunderground v.1.15,2013-04-06 22:24:00,
2013-04-06 18:34:00,39.6,23.9,29.33,SSE,155,8.0,13.0,53,0.00,,,0.00,Wunderground v.1.15,2013-04-06 22:34:00,
2013-04-06 18:39:00,39.2,23.9,29.33,South,182,9.0,11.0,54,0.00,,,0.00,Wunderground v.1.15,2013-04-06 22:39:00,
2013-04-06 18:49:00,38.7,23.9,29.34,SE,146,9.0,11.0,55,0.00,,,0.00,Wunderground v.1.15,2013-04-06 22:49:00,
2013-04-06 18:54:00,38.5,24.1,29.33,SSE,150,9.0,11.0,56,0.00,,,0.00,Wunderground v.1.15,2013-04-06 22:54:00,
2013-04-06 19:04:00,38.0,23.7,29.33,South,178,8.0,11.0,56,0.00,,,0.00,Wunderground v.1.15,2013-04-06 23:04:00,
2013-04-06 19:09:00,37.7,23.4,29.33,SSW,198,9.0,9.0,56,0.00,,,0.00,Wunderground v.1.15,2013-04-06 23:09:00,
2013-04-06 19:14:00,37.5,23.2,29.33,SSW,194,8.0,11.0,56,0.00,,,0.00,Wunderground v.1.15,2013-04-06 23:14:00,
2013-04-06 19:24:00,37.1,23.3,29.32,SSE,157,8.0,11.0,57,0.00,,,0.00,Wunderground v.1.15,2013-04-06 23:24:00,
2013-04-06 19:29:00,36.9,23.5,29.32,SSE,167,7.0,11.0,58,0.00,,,0.00,Wunderground v.1.15,2013-04-06 23:29:00,
2013-04-06 19:39:00,36.6,24.0,29.32,South,179,6.0,6.0,60,0.00,,,0.00,Wunderground v.1.15,2013-04-06 23:39:00,
2013-04-06 19:44:00,36.4,23.8,29.31,SSW,192,5.0,11.0,60,0.00,,,0.00,Wunderground v.1.15,2013-04-06 23:44:00,
2013-04-06 19:49:00,36.2,24.0,29.31,South,169,5.0,11.0,61,0.00,,,0.00,Wunderground v.1.15,2013-04-06 23:49:00,
2013-04-06 19:59:00,36.0,23.8,29.31,South,185,5.0,5.0,61,0.00,,,0.00,Wunderground v.1.15,2013-04-06 23:59:00,
2013-04-06 20:04:00,35.9,23.7,29.31,South,171,4.0,6.0,61,0.00,,,0.00,Wunderground v.1.15,2013-04-07 00:04:00,
2013-04-06 20:09:00,35.8,23.7,29.31,South,186,4.0,11.0,61,0.00,,,0.00,Wunderground v.1.15,2013-04-07 00:09:00,
2013-04-06 20:19:00,35.8,24.0,29.30,SSW,194,5.0,5.0,62,0.00,,,0.00,Wunderground v.1.15,2013-04-07 00:19:00,
2013-04-06 20:24:00,35.7,24.3,29.30,South,186,4.0,11.0,63,0.00,,,0.00,Wunderground v.1.15,2013-04-07 00:24:00,
2013-04-06 20:29:00,35.8,24.4,29.30,SSE,155,4.0,11.0,63,0.00,,,0.00,Wunderground v.1.15,2013-04-07 00:29:00,
2013-04-06 20:34:00,35.9,24.5,29.31,South,182,4.0,11.0,63,0.00,,,0.00,Wunderground v.1.15,2013-04-07 00:34:00,
2013-04-06 20:39:00,35.9,24.5,29.31,SSE,160,4.0,4.0,63,0.00,,,0.00,Wunderground v.1.15,2013-04-07 00:39:00,
2013-04-06 20:44:00,36.1,24.7,29.30,South,179,3.0,6.0,63,0.00,,,0.00,Wunderground v.1.15,2013-04-07 00:44:00,
2013-04-06 20:49:00,36.1,24.7,29.30,SSW,192,4.0,4.0,63,0.00,,,0.00,Wunderground v.1.15,2013-04-07 00:49:00,
2013-04-06 20:54:00,36.2,24.8,29.30,South,186,4.0,8.0,63,0.00,,,0.00,Wunderground v.1.15,2013-04-07 00:54:00,
2013-04-06 21:04:00,36.3,25.3,29.30,SSE,161,4.0,11.0,64,0.00,,,0.00,Wunderground v.1.15,2013-04-07 01:04:00,
2013-04-06 21:09:00,36.4,25.4,29.30,South,184,3.0,11.0,64,0.00,,,0.00,Wunderground v.1.15,2013-04-07 01:09:00,
2013-04-06 21:14:00,36.5,25.5,29.29,SSE,166,2.0,11.0,64,0.00,,,0.00,Wunderground v.1.15,2013-04-07 01:14:00,
2013-04-06 21:19:00,36.5,25.5,29.29,South,180,3.0,11.0,64,0.00,,,0.00,Wunderground v.1.15,2013-04-07 01:19:00,
2013-04-06 21:24:00,36.6,25.9,29.28,South,190,4.0,11.0,65,0.00,,,0.00,Wunderground v.1.15,2013-04-07 01:24:00,
2013-04-06 21:29:00,36.8,26.1,29.28,South,178,5.0,5.0,65,0.00,,,0.00,Wunderground v.1.15,2013-04-07 01:29:00,
2013-04-06 21:39:00,37.2,26.1,29.28,South,190,4.0,4.0,64,0.00,,,0.00,Wunderground v.1.15,2013-04-07 01:39:00,
2013-04-06 21:44:00,37.4,25.9,29.27,SSE,167,4.0,6.0,63,0.00,,,0.00,Wunderground v.1.15,2013-04-07 01:44:00,
2013-04-06 21:49:00,37.7,25.8,29.27,South,178,4.0,11.0,62,0.00,,,0.00,Wunderground v.1.15,2013-04-07 01:49:00,
2013-04-06 21:54:00,37.8,25.9,29.27,South,191,4.0,11.0,62,0.00,,,0.00,Wunderground v.1.15,2013-04-07 01:54:00,
2013-04-06 21:59:00,38.0,26.1,29.27,South,175,4.0,11.0,62,0.00,,,0.00,Wunderground v.1.15,2013-04-07 01:59:00,
2013-04-06 22:05:00,38.3,26.0,29.27,South,183,4.0,11.0,61,0.00,,,0.00,Wunderground v.1.15,2013-04-07 02:05:00,
2013-04-06 22:14:00,38.7,26.0,29.26,South,186,4.0,6.0,60,0.00,,,0.00,Wunderground v.1.15,2013-04-07 02:14:00,
2013-04-06 22:19:00,38.9,25.8,29.25,SSW,200,4.0,11.0,59,0.00,,,0.00,Wunderground v.1.15,2013-04-07 02:19:00,
2013-04-06 22:24:00,39.1,25.6,29.25,South,191,4.0,11.0,58,0.00,,,0.00,Wunderground v.1.15,2013-04-07 02:24:00,
2013-04-06 22:34:00,39.3,25.7,29.25,SSW,200,4.0,11.0,58,0.00,,,0.00,Wunderground v.1.15,2013-04-07 02:34:00,
2013-04-06 22:39:00,39.4,26.2,29.25,South,189,3.0,3.0,59,0.00,,,0.00,Wunderground v.1.15,2013-04-07 02:39:00,
2013-04-06 22:44:00,39.4,26.2,29.25,South,186,3.0,11.0,59,0.00,,,0.00,Wunderground v.1.15,2013-04-07 02:44:00,
2013-04-06 22:54:00,39.5,25.9,29.24,South,186,3.0,3.0,58,0.00,,,0.00,Wunderground v.1.15,2013-04-07 02:54:00,
2013-04-06 23:04:00,39.5,26.8,29.24,South,186,2.0,11.0,60,0.00,,,0.00,Wunderground v.1.15,2013-04-07 03:04:00,
2013-04-06 23:09:00,39.5,26.8,29.24,South,186,1.0,11.0,60,0.00,,,0.00,Wunderground v.1.15,2013-04-07 03:09:00,
2013-04-06 23:14:00,39.5,26.8,29.24,South,186,0.0,11.0,60,0.00,,,0.00,Wunderground v.1.15,2013-04-07 03:14:00,
2013-04-06 23:19:00,39.5,26.8,29.23,South,186,0.0,11.0,60,0.00,,,0.00,Wunderground v.1.15,2013-04-07 03:19:00,
2013-04-06 23:24:00,39.5,26.8,29.23,South,186,0.0,11.0,60,0.00,,,0.00,Wunderground v.1.15,2013-04-07 03:24:00,
2013-04-06 23:34:00,39.6,26.8,29.22,South,186,1.0,11.0,60,0.00,,,0.00,Wunderground v.1.15,2013-04-07 03:34:00,
2013-04-06 23:44:00,39.2,27.7,29.22,South,186,1.0,11.0,63,0.00,,,0.00,Wunderground v.1.15,2013-04-07 03:44:00,
2013-04-06 23:49:00,39.2,28.0,29.22,South,186,1.0,11.0,64,0.00,,,0.00,Wunderground v.1.15,2013-04-07 03:49:00,
2013-04-06 23:54:00,39.6,27.6,29.21,South,186,3.0,11.0,62,0.00,,,0.00,Wunderground v.1.15,2013-04-07 03:54:00,
2013-04-06 23:59:00,40.1,26.9,29.20,SSW,194,5.0,5.0,59,0.00,,,0.00,Wunderground v.1.15,2013-04-07 03:59:00,